Back to catalog

STARLINK-3341

AliveCommunicationsVLEO
NORAD 50817·PAYLOAD·🇺🇸 United States

Launched Jan 6, 2022 from Cape Canaveral Space Force Station

Loading…

Next Passes (next 24 hours)

TLE

FreshSource: CelesTrak SupGP

Epoch: Sep 15, 2026, 01:49 UTC

1 50817C 22001Q   26258.07618056 -.00018057  00000+0 -51653-3 0  2585
2 50817  53.1594  27.5107 0001191  83.9176 320.4837 15.35413916    14

Track STARLINK-3341 in real time with AllMySat

Download on the App Store